Regional Weather Roundup
Issued by NWS

Home | Current Version | Previous Version | Text Only | Print | Product List | Glossary Off
Versions: 1 2 3 4 5 6 7 8 9 10 11 12 13 14 15 16 17 18 19 20 21 22 23 24 25 26 27 28 29 30 31 32 33 34 35 36 37 38 39 40 41 42 43 44 45 46 47 48 49 50

427
ASUS45 KBOU 300607
RWRCO

WEATHER ROUNDUP FOR COLORADO
NATIONAL WEATHER SERVICE DENVER/BOULDER CO
1200 AM MDT SAT JUL 30 2016

NOTE: "FAIR" INDICATES FEW OR NO CLOUDS BELOW 12000 FEET WITH NO
SIGNIFICANT WEATHER AND/OR OBSTRUCTIONS TO VISIBILITY.

COZ001>005-013-030-031-300700-
...NORTHWEST COLORADO...

CITY           SKY/WX    TMP DP  RH WIND       PRES   REMARKS
CRAIG          FAIR      56  42  59 E6        30.11R
HAYDEN         FAIR      64  34  32 E8        30.13S
MEEKER         FAIR      63  41  44 NE7       30.14S
MOUNT WERNER   NOT AVBL
STEAMBOAT SPGS FAIR      59  39  46 CALM      30.17R
WALDEN         FAIR      50  34  53 E6        30.27S
$$

COZ006>008-011-300700-
...WEST CENTRAL VALLEYS...

CITY           SKY/WX    TMP DP  RH WIND       PRES   REMARKS
GRAND JUNCTION FAIR      75  35  23 SE8       29.97S
MONTROSE       FAIR      73  37  27 SE9       30.09S
EAGLE          FAIR      66  37  34 SE5       30.18R
RIFLE          FAIR      72  37  28 SE12      30.06R
DELTA          NOT AVBL
NUCLA          NOT AVBL
$$

COZ017>023-064>068-300700-
...SOUTHWEST COLORADO...

CITY           SKY/WX    TMP DP  RH WIND       PRES   REMARKS
DURANGO        FAIR      69  44  40 SE12      30.24R
CORTEZ         FAIR      77  43  29 E8        30.12R
PAGOSA SPRINGS FAIR      68  36  30 SW7       30.33R
TELLURIDE      FAIR      63  33  32 SE5       30.42S
WOLF CREEK PAS CLOUDY    50  34  53 SW23      30.67S
$$

COZ009-010-012-014-032>034-037-058>063-300700-
...CENTRAL COLORADO...

CITY           SKY/WX    TMP DP  RH WIND       PRES   REMARKS
ASPEN          FAIR      59  37  44 S7        30.27R
BUENA VISTA    FAIR      62  51  67 E6        30.34S
COPPER MTN     CLOUDY    59  27  29 W7        30.62S
BERTHOUD PASS  FAIR      48  34  57 NW7G22    30.64F
COTTONWOOD PAS FAIR      59  50  72 CALM      30.48R
GUNNISON       FAIR      63  37  39 CALM      30.30R
KREMMLING      FAIR      55  36  47 E3        30.24R
LEADVILLE      FAIR      51  34  52 E3        30.45S
MONARCH PASS   FOG       46  45  93 NE9       30.74S VSB<1/4
SALIDA         FAIR      67  54  63 SE9G17    30.38R
SUNLIGHT       FAIR      63  30  29 MISG      30.54S
WILKERSON PASS FAIR      50  45  81 S3        30.60S
$$

COZ069>075-300700-
...SAN LUIS VALLEY/SANGRE DE CRISTO MOUNTAINS...

CITY           SKY/WX    TMP DP  RH WIND       PRES   REMARKS
ALAMOSA        FAIR      63  41  44 SE14      30.27R
LA VETA PASS   FAIR      50  43  76 S10G18    30.50S
SAGUACHE       FAIR      68  45  42 SE7       30.32R
$$

COZ035-036-038>040-300700-
...NORTHERN COLORADO FRONT RANGE...

CITY           SKY/WX    TMP DP  RH WIND       PRES   REMARKS
DENVER INTL AP FAIR      69  60  73 S17       30.13F
DMNS CITY PARK   N/A     72  57  58 SW9G16    30.13F
AURORA         PTCLDY    69  60  73 S23       30.15F
FRONT RANGE AP NOT AVBL
ERIE MUNI ARPT FAIR      66  60  82 N5        30.13S
BOULDER MUN AP FAIR      64  61  88 CALM      30.15R
CENTENNIAL     MOCLDY    68  58  70 S22       30.17R
BROOMFIELD     FAIR      66  59  77 NW6       30.16S
LONGMONT       NOT AVBL
$$

COZ041-046-047-076>085-087-088-300700-
...PIKES PEAK/PALMER DIVIDE AND SOUTHERN FOOTHILLS...

CITY           SKY/WX    TMP DP  RH WIND       PRES   REMARKS
COLO. SPRINGS  MOCLDY    67  60  78 E6        30.27R THUNDER
A. F. ACADEMY  CLOUDY    66  59  80 SE14      30.25S
SCHRIEVER AFB  NOT AVBL
ELLICOTT       NOT AVBL
FALCON         CLOUDY    62  60  96 SE9       30.31R
FORT CARSON    MOCLDY    66  61  82 SE6       30.22F
LIMON          FAIR      64  61  90 SE6       30.21R
MONUMENT HILL  MOCLDY    61  57  88 S17G24    30.28F
TRINIDAD       NOT AVBL
$$

COZ042>045-048>051-090-091-300700-
...NORTHEAST COLORADO...

CITY           SKY/WX    TMP DP  RH WIND       PRES   REMARKS
GREELEY ARPT   FAIR      64  59  82 SE9       30.13F
AKRON          FAIR      66  60  81 SE12      30.12F
BURLINGTON     TSTM      68  61  78 VRB6      30.16F
WRAY           NOT AVBL
STERLING       NOT AVBL
HOLYOKE        NOT AVBL
FORT MORGAN    NOT AVBL
$$

COZ086-089-092>099-300700-
...SOUTHEAST COLORADO...

CITY           SKY/WX    TMP DP  RH WIND       PRES   REMARKS
PUEBLO         FAIR      72  62  71 E13       30.12S
LA JUNTA       FAIR      71  63  75 E13       30.14R
LAMAR          FAIR      68  65  90 CALM      30.10R
SPRINGFIELD      N/A     64  62  93 W3        30.15S
$$




USA.gov is the U.S. government's official web portal to all federal, state and local government web resources and services.